Location: Kitchener
(43.4500°N, 80.5000°W)
Time: 14:55:20
(UTC-04:00)

Tiangong 2 - Visible Passes

Search period start: 25 May 2018 00:00
Search period end: 04 June 2018 00:00
Orbit: 382 x 385 km, 42.8° (Epoch: 25 May)

Date Brightness Start Highest point End Pass type
(mag) Time Alt. Az. Time Alt. Az. Time Alt. Az.
25 May 0.9 22:20:02 10° W 22:23:12 79° S 22:25:10 21° E visible
25 May 3.7 23:56:45 10° W 23:57:22 15° W 23:57:22 15° W visible
26 May 0.9 22:56:56 10° W 23:00:04 73° S 23:00:16 70° SSE visible
27 May 1.0 21:57:07 10° W 22:00:16 81° S 22:03:05 13° E visible
27 May 3.0 23:33:52 10° W 23:35:16 22° WSW 23:35:16 22° WSW visible
28 May 1.1 22:34:00 10° W 22:37:06 58° SSW 22:38:02 38° SE visible
29 May 1.0 21:34:10 10° W 21:37:19 73° S 21:40:28 10° ESE visible
29 May 2.7 23:11:03 10° W 23:12:57 24° SW 23:12:57 24° SW visible
30 May 1.6 22:11:05 10° W 22:14:06 42° SSW 22:15:40 23° SE visible
31 May 2.9 22:48:25 10° WSW 22:50:35 18° SSW 22:50:35 18° SSW visible
01 Jun 2.3 21:48:13 10° W 21:50:59 28° SSW 21:53:20 13° SSE visible
02 Jun 3.6 22:26:25 10° SW 22:27:26 11° SW 22:28:17 10° SSW visible
